Location: Poughquag
(41.6090°N, 73.6820°W)
Time: 02:12:27
(UTC-04:00)

Transit 2A Rocket - Visible Passes

Search period start: 15 October 2019 00:00
Search period end: 25 October 2019 00:00
Orbit: 593 x 910 km, 66.7° (Epoch: 14 October)

Date Brightness Start Highest point End Pass type
(mag) Time Alt. Az. Time Alt. Az. Time Alt. Az.
15 Oct 6.4 06:17:10 10° S 06:22:05 41° ESE 06:26:37 10° NE visible
16 Oct 7.3 05:35:37 10° SSE 05:39:43 23° ESE 05:43:34 10° ENE visible
17 Oct 7.9 04:55:09 10° SE 04:57:25 13° ESE 04:59:38 10° E visible
17 Oct 4.8 06:34:16 10° SSW 06:39:29 78° WNW 06:44:15 10° NNE visible
18 Oct 5.4 05:51:50 10° SSW 05:56:59 60° ESE 06:01:41 10° NE visible
19 Oct 6.5 05:09:54 10° S 05:14:33 33° ESE 05:18:53 10° NE visible
20 Oct 7.3 04:28:37 10° SSE 04:32:13 19° ESE 04:35:37 10° ENE visible
20 Oct 4.9 06:09:25 10° SW 06:14:27 53° WNW 06:19:04 10° NNE visible
21 Oct 7.8 03:49:47 10° ESE 03:49:57 10° ESE 03:50:08 10° ESE visible
21 Oct 4.8 05:28:23 20° SSW 05:31:54 87° ESE 05:36:39 10° NNE visible
22 Oct 5.6 04:48:21 41° SSE 04:49:26 49° ESE 04:54:01 10° NE visible
22 Oct 6.0 06:28:21 11° W 06:32:10 23° NW 06:35:54 10° N visible
23 Oct 6.8 04:08:03 25° E 04:08:03 25° E 04:11:05 10° NE visible
23 Oct 5.3 05:48:02 31° W 05:49:28 37° NW 05:53:49 10° NNE visible
24 Oct 4.9 05:07:29 58° NNW 05:07:29 58° NNW 05:11:31 10° NNE visible
24 Oct 6.7 06:49:10 10° NW 06:50:13 11° NW 06:51:16 10° NNW visible
